Location: Wangen/Allg�u
(47.6873°N, 9.8307°E)
Time: 17:21:31
(UTC+01:00)

ISS - Pass Details

Date: 04 December 2021
Orbit: 413 x 422 km, 51.6° (Epoch: 18 January)

Event Time Altitude Azimuth Distance (km) Brightness Sun altitude
Rises 19:27:03 0° 288° (WNW) 2,381 1.1 -28.9°
Reaches altitude 10° 19:29:28 10° 273° (W) 1,510 0.0 -29.3°
Enters shadow 19:30:38 16° 256° (WSW) 1,176 -0.8 -29.5°
